TimeCDT,TemperatureF,Dew PointF,Humidity,Sea Level PressureIn,VisibilityMPH,Wind Direction,Wind SpeedMPH,Gust SpeedMPH,PrecipitationIn,Events,Conditions,WindDirDegrees,DateUTC
12:56 AM,72.0,64.9,78,29.91,10.0,North,9.2,-,N/A,,Scattered Clouds,350,2012-09-09 05:56:00
1:56 AM,71.1,64.0,78,29.91,10.0,North,8.1,-,N/A,,Mostly Cloudy,10,2012-09-09 06:56:00
2:56 AM,70.0,63.0,78,29.93,10.0,North,5.8,-,N/A,,Partly Cloudy,350,2012-09-09 07:56:00
3:56 AM,69.1,63.0,81,29.94,10.0,North,6.9,-,N/A,,Partly Cloudy,350,2012-09-09 08:56:00
4:56 AM,66.9,62.1,84,29.95,10.0,North,6.9,-,N/A,,Partly Cloudy,350,2012-09-09 09:56:00
5:56 AM,66.0,61.0,84,29.96,10.0,North,9.2,-,N/A,,Partly Cloudy,350,2012-09-09 10:56:00
6:56 AM,66.0,61.0,84,29.98,10.0,North,9.2,-,N/A,,Partly Cloudy,360,2012-09-09 11:56:00
7:56 AM,68.0,62.1,81,29.99,10.0,North,12.7,-,N/A,,Partly Cloudy,10,2012-09-09 12:56:00
8:56 AM,73.0,61.0,66,30.01,10.0,North,9.2,-,N/A,,Partly Cloudy,10,2012-09-09 13:56:00
9:56 AM,75.9,60.1,58,30.02,10.0,NNE,15.0,19.6,N/A,,Clear,20,2012-09-09 14:56:00
10:56 AM,77.0,60.1,56,30.03,10.0,NNE,11.5,-,N/A,,Clear,20,2012-09-09 15:56:00
11:56 AM,80.1,59.0,48,30.01,10.0,North,11.5,-,N/A,,Partly Cloudy,350,2012-09-09 16:56:00
12:56 PM,80.1,57.0,45,30.00,10.0,North,11.5,-,N/A,,Scattered Clouds,10,2012-09-09 17:56:00
1:56 PM,82.0,57.9,44,29.99,10.0,NNW,11.5,-,N/A,,Scattered Clouds,330,2012-09-09 18:56:00
2:56 PM,82.9,57.0,41,29.97,10.0,North,10.4,-,N/A,,Scattered Clouds,360,2012-09-09 19:56:00
3:56 PM,82.0,55.0,39,29.97,10.0,Variable,3.5,-,N/A,,Scattered Clouds,0,2012-09-09 20:56:00
4:56 PM,82.0,55.0,39,29.97,10.0,North,9.2,-,N/A,,Scattered Clouds,360,2012-09-09 21:56:00
5:56 PM,80.1,55.9,43,29.97,10.0,North,9.2,-,N/A,,Scattered Clouds,350,2012-09-09 22:56:00
6:56 PM,75.0,57.0,53,29.98,10.0,North,6.9,-,N/A,,Mostly Cloudy,360,2012-09-09 23:56:00
7:56 PM,72.0,57.9,61,29.99,10.0,NNE,5.8,-,N/A,,Scattered Clouds,20,2012-09-10 00:56:00
8:56 PM,71.1,57.9,63,30.01,10.0,North,6.9,-,N/A,,Partly Cloudy,10,2012-09-10 01:56:00
9:56 PM,69.1,57.9,68,30.03,10.0,North,4.6,-,N/A,,Partly Cloudy,360,2012-09-10 02:56:00
10:56 PM,66.9,57.9,73,30.03,10.0,North,5.8,-,N/A,,Scattered Clouds,360,2012-09-10 03:56:00
11:56 PM,64.9,57.9,78,30.04,10.0,North,4.6,-,N/A,,Partly Cloudy,360,2012-09-10 04:56:00